| time (UTC) | temp C | wind direction | speed KPH | gust KPH | rain 1hr cm | rain 24hr cm | rain mn cm | humidity % | barometer mb |
| 20260505041548 | 24 | 65 | 1.6 | 4.8 | 0.00 | 0.00 | 0.00 | 91 | 1016.5 |
| 20260505041045 | 24 | 86 | 1.6 | 4.8 | 0.00 | 0.00 | 0.00 | 92 | 1016.6 |
| 20260505040544 | 24 | 63 | 1.6 | 4.8 | 0.00 | 0.00 | 0.00 | 91 | 1016.6 |
| 20260505040044 | 24 | 65 | 1.6 | 3.2 | 0.00 | 0.00 | 0.00 | 91 | 1016.7 |
| 20260505035542 | 24 | 76 | 1.6 | 3.2 | 0.00 | 0.00 | 0.00 | 91 | 1016.7 |
| 20260505035041 | 24 | 103 | 0.0 | 4.8 | 0.00 | 0.00 | 0.00 | 91 | 1016.7 |
| 20260505034542 | 24 | 83 | 1.6 | 4.8 | 0.00 | 0.00 | 0.00 | 91 | 1016.8 |
| 20260505034040 | 24 | 71 | 1.6 | 3.2 | 0.00 | 0.00 | 0.00 | 91 | 1016.7 |
| 20260505033540 | 25 | 71 | 0.0 | 1.6 | 0.00 | 0.00 | 0.00 | 91 | 1016.7 |
| 20260505033042 | 25 | 71 | 0.0 | 3.2 | 0.00 | 0.00 | 0.00 | 91 | 1016.7 |
| 20260505032542 | 25 | 71 | 0.0 | 3.2 | 0.00 | 0.00 | 0.00 | 90 | 1016.8 |
| 20260505032039 | 25 | 71 | 0.0 | 3.2 | 0.00 | 0.00 | 0.00 | 91 | 1016.8 |
| 20260505031552 | 25 | 71 | 1.6 | 3.2 | 0.00 | 0.00 | 0.00 | 90 | 1016.8 |
| 20260505031040 | 25 | 71 | 0.0 | 3.2 | 0.00 | 0.00 | 0.00 | 90 | 1016.8 |
| 20260505030539 | 25 | 71 | 0.0 | 3.2 | 0.00 | 0.00 | 0.00 | 90 | 1016.9 |
| 20260505030039 | 25 | 71 | 1.6 | 3.2 | 0.00 | 0.00 | 0.00 | 90 | 1016.8 |
| 20260505025538 | 25 | 71 | 1.6 | 6.4 | 0.00 | 0.00 | 0.00 | 90 | 1016.7 |
| 20260505025036 | 25 | 70 | 1.6 | 6.4 | 0.00 | 0.00 | 0.00 | 90 | 1016.8 |
| 20260505024546 | 25 | 66 | 1.6 | 6.4 | 0.00 | 0.00 | 0.00 | 90 | 1016.7 |
| 20260505024035 | 25 | 82 | 1.6 | 4.8 | 0.00 | 0.00 | 0.00 | 90 | 1016.7 |
| 20260505023535 | 25 | 98 | 1.6 | 4.8 | 0.00 | 0.00 | 0.00 | 90 | 1016.7 |
| 20260505023040 | 25 | 66 | 1.6 | 4.8 | 0.00 | 0.00 | 0.00 | 89 | 1016.6 |
| 20260505022534 | 25 | 66 | 1.6 | 4.8 | 0.00 | 0.00 | 0.00 | 89 | 1016.7 |
| 20260505022033 | 25 | 70 | 3.2 | 4.8 | 0.00 | 0.00 | 0.00 | 89 | 1016.7 |
| 20260505021533 | 25 | 83 | 1.6 | 4.8 | 0.00 | 0.00 | 0.00 | 89 | 1016.6 |
| 20260505021031 | 25 | 85 | 1.6 | 4.8 | 0.00 | 0.00 | 0.00 | 89 | 1016.5 |
| 20260505020531 | 25 | 77 | 3.2 | 4.8 | 0.00 | 0.00 | 0.00 | 89 | 1016.6 |
| 20260505020030 | 25 | 59 | 1.6 | 3.2 | 0.00 | 0.00 | 0.00 | 89 | 1016.5 |
| 20260505015530 | 25 | 67 | 1.6 | 4.8 | 0.00 | 0.00 | 0.00 | 88 | 1016.5 |
| 20260505015029 | 25 | 61 | 1.6 | 4.8 | 0.00 | 0.00 | 0.00 | 88 | 1016.4 |
| 20260505014536 | 25 | 74 | 1.6 | 3.2 | 0.00 | 0.00 | 0.00 | 88 | 1016.4 |
| 20260505014027 | 25 | 71 | 1.6 | 4.8 | 0.00 | 0.00 | 0.00 | 88 | 1016.4 |
| 20260505013527 | 25 | 73 | 1.6 | 4.8 | 0.00 | 0.00 | 0.00 | 88 | 1016.4 |
| 20260505013027 | 25 | 59 | 1.6 | 4.8 | 0.00 | 0.00 | 0.00 | 88 | 1016.3 |
| 20260505012526 | 25 | 62 | 1.6 | 4.8 | 0.00 | 0.00 | 0.00 | 87 | 1016.3 |
| 20260505012024 | 25 | 62 | 1.6 | 4.8 | 0.00 | 0.00 | 0.00 | 87 | 1016.3 |
| 20260505011524 | 25 | 62 | 1.6 | 4.8 | 0.00 | 0.00 | 0.00 | 87 | 1016.2 |
| 20260505011023 | 26 | 67 | 1.6 | 3.2 | 0.00 | 0.00 | 0.00 | 87 | 1016.2 |
| 20260505010521 | 26 | 67 | 0.0 | 4.8 | 0.00 | 0.00 | 0.00 | 86 | 1016.1 |
| 20260505010021 | 26 | 67 | 1.6 | 4.8 | 0.00 | 0.00 | 0.00 | 86 | 1016.1 |
| 20260505005520 | 26 | 66 | 1.6 | 4.8 | 0.00 | 0.00 | 0.00 | 86 | 1016.0 |
| 20260505005020 | 26 | 71 | 1.6 | 3.2 | 0.00 | 0.00 | 0.00 | 86 | 1016.1 |
| 20260505004521 | 26 | 71 | 0.0 | 3.2 | 0.00 | 0.00 | 0.00 | 86 | 1015.9 |
| 20260505004019 | 26 | 63 | 0.0 | 3.2 | 0.00 | 0.00 | 0.00 | 86 | 1016.0 |
| 20260505003523 | 26 | 63 | 0.0 | 3.2 | 0.00 | 0.00 | 0.00 | 85 | 1016.0 |
| 20260505003018 | 26 | 63 | 0.0 | 3.2 | 0.00 | 0.00 | 0.00 | 85 | 1016.0 |
| 20260505002517 | 26 | 63 | 1.6 | 3.2 | 0.00 | 0.00 | 0.00 | 84 | 1015.9 |
| 20260505002017 | 26 | 63 | 0.0 | 4.8 | 0.00 | 0.00 | 0.00 | 84 | 1015.9 |
| 20260505001517 | 26 | 63 | 1.6 | 4.8 | 0.00 | 0.00 | 0.00 | 84 | 1015.8 |
| 20260505001015 | 26 | 51 | 1.6 | 3.2 | 0.00 | 0.00 | 0.00 | 83 | 1015.8 |
| 20260505000514 | 26 | 51 | 0.0 | 3.2 | 0.00 | 0.00 | 0.00 | 83 | 1015.9 |
| 20260505000015 | 26 | 51 | 0.0 | 3.2 | 0.00 | 0.00 | 0.00 | 82 | 1015.8 |
| 20260504235513 | 26 | 51 | 1.6 | 3.2 | 0.00 | 0.00 | 0.00 | 82 | 1015.8 |
| 20260504235013 | 27 | 44 | 0.0 | 3.2 | 0.00 | 0.00 | 0.00 | 81 | 1015.8 |
| 20260504234512 | 27 | 44 | 0.0 | 3.2 | 0.00 | 0.00 | 0.00 | 80 | 1015.7 |
| 20260504234013 | 27 | 44 | 0.0 | 3.2 | 0.00 | 0.00 | 0.00 | 80 | 1015.6 |
| 20260504233510 | 27 | 44 | 0.0 | 3.2 | 0.00 | 0.00 | 0.00 | 79 | 1015.6 |
| 20260504233008 | 27 | 44 | 0.0 | 3.2 | 0.00 | 0.00 | 0.00 | 79 | 1015.6 |
| 20260504232508 | 27 | 91 | 0.0 | 3.2 | 0.00 | 0.00 | 0.00 | 78 | 1015.7 |
| 20260504232006 | 27 | 91 | 0.0 | 3.2 | 0.00 | 0.00 | 0.00 | 78 | 1015.6 |
| 20260504231505 | -17 | 0.0 | 0.0 | 0.00 | 0.00 | 0.00 | 1015.5 | ||
| 20260504212028 | 28 | 42 | 4.8 | 14.5 | 0.00 | 0.00 | 0.00 | 75 | 1014.2 |
| 20260504211531 | 28 | 336 | 3.2 | 14.5 | 0.00 | 0.00 | 0.00 | 75 | 1014.4 |
| 20260504211023 | 28 | 61 | 4.8 | 14.5 | 0.00 | 0.00 | 0.00 | 76 | 1014.3 |
| 20260504210523 | 28 | 10 | 4.8 | 16.1 | 0.00 | 0.00 | 0.00 | 76 | 1014.3 |
| 20260504210034 | 28 | 36 | 6.4 | 16.1 | 0.00 | 0.00 | 0.00 | 74 | 1014.3 |
| 20260504205523 | 28 | 11 | 6.4 | 16.1 | 0.00 | 0.00 | 0.00 | 74 | 1014.3 |
| 20260504205022 | 29 | 85 | 1.6 | 8.0 | 0.00 | 0.00 | 0.00 | 73 | 1014.3 |
| 20260504204531 | 29 | 294 | 3.2 | 9.7 | 0.00 | 0.00 | 0.00 | 73 | 1014.3 |
| 20260504204022 | 29 | 360 | 1.6 | 8.0 | 0.00 | 0.00 | 0.00 | 72 | 1014.3 |
| 20260504203522 | 29 | 15 | 1.6 | 14.5 | 0.00 | 0.00 | 0.00 | 70 | 1014.4 |
| 20260504203026 | 29 | 77 | 4.8 | 17.7 | 0.00 | 0.00 | 0.00 | 70 | 1014.3 |
| 20260504202522 | 29 | 73 | 8.0 | 17.7 | 0.00 | 0.00 | 0.00 | 68 | 1014.3 |
| 20260504202022 | 29 | 5 | 6.4 | 16.1 | 0.00 | 0.00 | 0.00 | 70 | 1014.2 |
| 20260504201521 | 29 | 15 | 6.4 | 16.1 | 0.00 | 0.00 | 0.00 | 73 | 1014.4 |
| 20260504201021 | 29 | 57 | 8.0 | 19.3 | 0.00 | 0.00 | 0.00 | 72 | 1014.4 |
| 20260504200521 | 29 | 71 | 12.9 | 19.3 | 0.00 | 0.00 | 0.00 | 71 | 1014.4 |
| 20260504200021 | 30 | 78 | 6.4 | 17.7 | 0.00 | 0.00 | 0.00 | 69 | 1014.3 |
| 20260504195520 | 30 | 212 | 6.4 | 25.7 | 0.00 | 0.00 | 0.00 | 69 | 1014.4 |
| 20260504195021 | 30 | 92 | 12.9 | 25.7 | 0.00 | 0.00 | 0.00 | 70 | 1014.4 |
| 20260504194522 | 30 | 125 | 16.1 | 22.5 | 0.00 | 0.00 | 0.00 | 68 | 1014.3 |
| 20260504194021 | 30 | 271 | 6.4 | 19.3 | 0.00 | 0.00 | 0.00 | 67 | 1014.3 |
| 20260504193519 | 31 | 15 | 4.8 | 12.9 | 0.00 | 0.00 | 0.00 | 69 | 1014.2 |
| 20260504193018 | 30 | 291 | 3.2 | 8.0 | 0.00 | 0.00 | 0.00 | 70 | 1014.5 |
| 20260504192518 | 30 | 299 | 1.6 | 9.7 | 0.00 | 0.00 | 0.00 | 70 | 1014.6 |
| 20260504192017 | 30 | 262 | 1.6 | 9.7 | 0.00 | 0.00 | 0.00 | 70 | 1014.8 |
| 20260504173007 | 30 | 64 | 4.8 | 20.9 | 0.00 | 0.00 | 0.00 | 68 | 1015.7 |
| 20260504172505 | 30 | 68 | 12.9 | 20.9 | 0.00 | 0.00 | 0.00 | 66 | 1015.5 |
| 20260504172006 | 30 | 355 | 4.8 | 16.1 | 0.00 | 0.00 | 0.00 | 67 | 1015.7 |
| 20260504170503 | 30 | 60 | 6.4 | 17.7 | 0.00 | 0.00 | 0.00 | 68 | 1015.8 |
| 20260504151049 | 31 | 232 | 9.7 | 16.1 | 0.00 | 0.00 | 0.00 | 60 | 1016.2 |
| 20260504150550 | 31 | 229 | 8.0 | 14.5 | 0.00 | 0.00 | 0.00 | 61 | 1016.3 |
| 20260504141045 | 28 | 200 | 8.0 | 14.5 | 0.00 | 0.00 | 0.00 | 67 | 1016.5 |
| 20260504140549 | 29 | 200 | 8.0 | 16.1 | 0.00 | 0.00 | 0.00 | 67 | 1016.5 |
| 20260504130537 | 30 | 120 | 1.6 | 14.5 | 0.00 | 0.00 | 0.00 | 61 | 1016.4 |
| 20260504110508 | 25 | 107 | 6.4 | 14.5 | 0.00 | 0.00 | 0.00 | 77 | 1016.3 |
| 20260504100554 | 23 | 65 | 4.8 | 8.0 | 0.00 | 0.00 | 0.00 | 83 | 1016.0 |
| 20260504081544 | 23 | 88 | 4.8 | 8.0 | 0.00 | 0.00 | 0.00 | 82 | 1015.3 |
| 20260504081046 | 23 | 81 | 4.8 | 9.7 | 0.00 | 0.00 | 0.00 | 82 | 1015.2 |
| 20260504080546 | 23 | 90 | 4.8 | 12.9 | 0.00 | 0.00 | 0.00 | 82 | 1015.2 |